Location: *
(50.5492°N, 7.7469°E)
Time: 00:47:51
(UTC+00:00)

CZ-4 R/B - Pass Details

Date: 21 October 2019
Orbit: 530 x 601 km, 97.8° (Epoch: 11 November)

Event Time Altitude Azimuth Distance (km) Brightness Sun altitude
Rises 18:19:56 0° 189° (S) 2,816 5.0 -18.8°
Reaches altitude 10° 18:22:15 10° 199° (SSW) 1,928 4.2 -19.2°
Maximum altitude 18:26:02 33° 264° (W) 1,025 3.3 -19.8°
Drops below altitude 10° 18:29:54 10° 329° (NNW) 1,955 4.6 -20.4°
Sets 18:32:16 0° 339° (NNW) 2,863 5.4 -20.8°
